This is the latest recevied weather packets stored in our database for station/object KI6SYE. If no packets are shown the sender has not sent any weather packets the latest 10 day(s).
| Time | Temp. | Humidity | Pressure | Rain* | Wind** | Luminosity | Snow |
|---|---|---|---|---|---|---|---|
| 1778033095 | 16.67° C | 79% | 1014.4 hPa | 0 mm | - | 30 W/m² | - |
| 1778032792 | 16.67° C | 80% | 1014.3 hPa | 0 mm | - | 40 W/m² | - |
| 1778032490 | 16.67° C | 80% | 1014.3 hPa | 0 mm | - | 52 W/m² | - |
| 1778032186 | 16.67° C | 79% | 1014.2 hPa | 0 mm | - | 59 W/m² | - |
| 1778031883 | 17.22° C | 78% | 1014.2 hPa | 0 mm | - | 72 W/m² | - |
| 1778031579 | 16.67° C | 77% | 1014.5 hPa | 0 mm | - | 92 W/m² | - |
| 1778031277 | 16.11° C | 79% | 1014.1 hPa | 0 mm | - | 80 W/m² | - |
| 1778030974 | 16.11° C | 79% | 1014.3 hPa | 0 mm | - | 69 W/m² | - |
| 1778030671 | 16.11° C | 78% | 1014 hPa | 0 mm | - | 68 W/m² | - |
| 1778030368 | 16.11° C | 78% | 1014.3 hPa | 0 mm | - | 65 W/m² | - |
| 1778030065 | 16.11° C | 78% | 1014.3 hPa | 0 mm | - | 72 W/m² | - |
| 1778029762 | 16.11° C | 79% | 1014 hPa | 0 mm | - | 71 W/m² | - |
| 1778029461 | 16.11° C | 79% | 1014.4 hPa | 0 mm | - | 68 W/m² | - |
| 1778029156 | 16.67° C | 79% | 1014.4 hPa | 0 mm | - | 67 W/m² | - |
| 1778028855 | 16.67° C | 79% | 1014.4 hPa | 0 mm | - | 65 W/m² | - |
| 1778028549 | 16.67° C | 77% | 1014.3 hPa | 0 mm | - | 62 W/m² | - |
| 1778028248 | 16.67° C | 78% | 1014.2 hPa | 0 mm | - | 70 W/m² | - |
| 1778027943 | 16.67° C | 78% | 1014.1 hPa | 0 mm | - | 113 W/m² | - |
| 1778027639 | 17.22° C | 76% | 1014.3 hPa | 0 mm | - | 107 W/m² | - |
| 1778027336 | 17.22° C | 75% | 1014.2 hPa | 0 mm | - | 133 W/m² | - |
| 1778027032 | 17.78° C | 75% | 1014.2 hPa | 0 mm | - | 358 W/m² | - |
| 1778026728 | 17.78° C | 74% | 1014.1 hPa | 0 mm | - | 310 W/m² | - |
| 1778026425 | 17.22° C | 74% | 1014 hPa | 0 mm | - | 341 W/m² | - |
| 1778026122 | 17.22° C | 74% | 1014.2 hPa | 0 mm | - | 309 W/m² | - |
| 1778025820 | 17.78° C | 74% | 1014.1 hPa | 0 mm | - | 324 W/m² | - |
* Rain latest hour (hover to see other rain measurements)
** Current wind speed in m/s (hover to see current wind gust speed)